Sally Plumb Plumb

Silver Star - 3,229 Points (23 9 1940 / Haverhill Suffolk England)

Stats

» Click to list general statistics » OR, select a date :

General Statistics

Visitors of the poet

Number of visitors of the poet’s mainpage in PoemHunter.Com

Attention : Numbers in this table does not indicate the total hits of poems of the poet, but indicates the hits of the poet’s main page.

Date Hits
03/28/2017 Tuesday 211
78%
03/27/2017 Monday 193
71%
03/26/2017 Sunday 152
56%
03/25/2017 Saturday 204
75%
03/24/2017 Friday 147
54%
03/23/2017 Thursday 79
29%
03/22/2017 Wednesday 36
13%
03/21/2017 Tuesday 22
8%
03/20/2017 Monday 26
9%
03/19/2017 Sunday 33
12%
03/18/2017 Saturday 32
11%
03/17/2017 Friday 32
11%
03/16/2017 Thursday 101
37%
03/15/2017 Wednesday 100
37%
03/14/2017 Tuesday 87
32%
03/13/2017 Monday 93
34%
03/12/2017 Sunday 119
44%
03/11/2017 Saturday 269
100%
03/10/2017 Friday 79
29%
03/09/2017 Thursday 74
27%

Reader rating & num.of MyPoemList’s

Click the captions of columns to change the order.

# Poem Title Submit Date Reader Rating Num.of MyPoemList’s
Rating Num.R.
1 Halt 12/08/2016 -- 0 0
2 Pair 12/07/2016 -- 0 0
3 Midnight 04/24/2016 10.0 1 0
4 Choice 04/23/2016 10.0 1 0
5 Escape 04/22/2016 -- 0 0
6 Refugee 02/21/2016 -- 0 0
7 Jacobs Ladder 02/20/2016 -- 0 0
8 The Big Cheat 02/19/2016 -- 0 0
9 Squaw 11/01/2015 10.0 3 1
10 Division 10/06/2015 -- 0 0
11 Vanity 08/25/2015 -- 0 0
12 Your Call 08/25/2015 -- 0 0
13 United 06/27/2015 -- 0 0
14 Sacrifice 06/27/2015 -- 0 0
15 Prayer For Night 06/27/2015 -- 0 0
16 Rocker Song 03/31/2015 -- 0 0
17 Nightwatch 11/04/2014 10.0 1 0
18 A Boy And A Frog (Kids Stuff) 10/23/2014 -- 0 1
19 The Slow Walk 08/09/2014 10.0 1 0
20 After 08/08/2014 -- 0 0
21 The Contest 06/05/2014 -- 0 0
22 Barn Owl 05/09/2014 10.0 1 0
23 Listen 05/08/2014 -- 0 0
24 Harmony 05/07/2014 10.0 1 0
25 Conflict 02/24/2014 10.0 2 0
26 Confession 02/11/2014 -- 0 0
27 Night Bird 02/07/2014 -- 0 0
28 Ebb Tide 02/03/2014 10.0 1 0
29 Many Hollows 01/03/2014 7.5 2 0
30 Night Ways 01/02/2014 -- 0 0
31 The Lion 01/01/2014 7.0 1 0
32 The Appointment 12/24/2013 -- 0 0
33 Flippancy 12/22/2013 9.0 2 0
34 Hit 12/21/2013 10.0 1 0
35 Negativity 11/11/2013 10.0 2 0
36 Too Old 10/28/2013 10.0 3 0
37 Three Phases 09/28/2013 10.0 1 0
38 Frightened Fourteen (Kids Stuff) 09/27/2013 10.0 1 0
39 Killing Time 09/23/2013 8.5 2 0
40 Rumour 08/30/2013 -- 0 0
41 Separation 08/14/2013 10.0 3 2
42 Shades Of Love 08/01/2013 10.0 4 1
43 Getting Fat 06/28/2013 9.7 3 0
44 Infinity 05/08/2013 9.8 10 1
45 Twilight 03/30/2013 10.0 4 2
46 Mind Healer 03/19/2013 9.5 2 0
47 Mute 03/18/2013 9.5 4 0
48 Down The Drain 03/07/2013 9.7 3 0
49 Monday Morning 03/06/2013 10.0 1 0
50 Imagination 03/05/2013 10.0 1 0
51 Earth Fire 12/08/2012 10.0 1 0
52 Nightmare 10/20/2012 10.0 2 0
53 Workday Weekday 10/17/2012 -- 0 0
54 Remorse 10/07/2012 -- 0 0
55 High Hopes 10/06/2012 -- 0 0
56 Lost For Words 10/04/2012 10.0 1 0
57 Confused? 08/15/2012 -- 0 0
58 Breakdown 08/14/2012 10.0 4 0
59 Departure 08/07/2012 10.0 2 0
60 Seagull 07/11/2012 10.0 4 0
61 Late Friday Night 06/29/2012 9.7 3 0
62 Rig Divers North Sea 06/28/2012 -- 0 0
63 Gossips 06/27/2012 10.0 3 0
64 Another Shade Of Blue 06/27/2012 10.0 5 1
65 Score 04/22/2012 10.0 2 0
66 Request 04/21/2012 10.0 1 0
67 Tough Love 04/18/2012 10.0 3 0
68 Stairway 03/23/2012 10.0 1 0
69 Wind And Rain 02/20/2012 10.0 3 0
70 Dawn 02/09/2012 -- 0 0
71 Defeat 02/08/2012 7.0 3 0
72 Jack Spratt 12/27/2011 9.7 3 0
73 Beyond 12/06/2011 -- 0 0
74 Undressed 12/05/2011 -- 0 0
75 Letter 11/28/2011 10.0 1 0
76 Fantasia 11/24/2011 -- 0 0
77 Betrayel 11/22/2011 -- 0 0
78 Grandmama 11/21/2011 -- 0 0
79 Crimes 11/01/2011 9.7 3 0
80 Swing High Swing Low 10/07/2011 10.0 1 1
81 Destiny 10/05/2011 10.0 1 0
82 Silken Thread 10/02/2011 -- 0 0
83 Seeing You 10/01/2011 10.0 1 0
84 Fractions 09/30/2011 -- 0 0
85 Question 09/28/2011 -- 0 0
86 Birth 09/09/2011 -- 0 0
87 The Voice Of Seduction 09/07/2011 -- 0 0
88 Second Depression 08/10/2011 -- 0 0
89 Crumbs 08/06/2011 10.0 1 0
90 Night Sky 07/08/2011 9.0 2 0
91 The Social Divide 07/04/2011 -- 0 0
92 Retort 07/01/2011 10.0 1 0
93 Mr Jones 06/15/2011 -- 0 0
94 Bitter Beginning 06/13/2011 -- 0 0
95 Imagine 06/03/2011 -- 0 0
96 Gabriel 06/02/2011 -- 0 0
97 The Shift Worker 05/25/2011 8.0 1 0
98 Downtown 05/20/2011 -- 0 0
99 Skin 05/19/2011 -- 0 0
100 Natural Tempo 05/18/2011 10.0 2 0
101 Magical Night 04/14/2011 10.0 1 0
102 Conversation 04/12/2011 -- 0 0
103 Aunt Summer Rose (Kids Stuff) 04/08/2011 -- 0 0
104 Eden's Gate 04/07/2011 -- 0 0
105 First Season 03/29/2011 -- 0 0
106 November 03/09/2011 10.0 1 0
107 Chores 03/08/2011 10.0 1 0
108 Torment 03/05/2011 -- 0 0
109 Over Time 02/19/2011 -- 0 0
110 The Thaw 02/18/2011 10.0 1 0
111 Jukes Song 02/14/2011 -- 0 0
112 Thinks Party 02/12/2011 10.0 2 1
113 Predator 02/11/2011 -- 0 0
114 Headless 02/08/2011 6.0 1 0
115 Annie May 01/06/2011 10.0 1 0
116 Look 01/05/2011 -- 0 0
117 Slough Of Despond 12/11/2010 10.0 2 0
118 The Dryad 12/04/2010 -- 0 0
119 Christmas Day 12/03/2010 10.0 1 0
120 Snake Skin 12/01/2010 10.0 1 0
121 Opposition 11/12/2010 -- 0 0
122 Natures Way 10/13/2010 -- 0 0
123 Bad Rivers 10/12/2010 10.0 4 0
124 Calling Wind 10/01/2010 9.8 4 0
125 Decision 09/23/2010 10.0 1 0
126 Passing Tedious Time 08/26/2010 -- 0 0
127 Zero 08/10/2010 10.0 3 0
128 1957 08/04/2010 9.5 4 0
129 Singing Lesson 08/02/2010 -- 0 0
130 Evening At Home 06/29/2010 10.0 2 0
131 Not Tonight 06/28/2010 -- 0 0
132 6 P.M. 06/08/2010 9.5 2 0
133 Orange 06/01/2010 10.0 1 0
134 Yellow Iris 05/23/2010 10.0 1 0
135 Shower 05/22/2010 -- 0 0
136 Reunion 05/17/2010 -- 0 0
137 Shadow 05/16/2010 10.0 1 0
138 Explanation 05/15/2010 -- 0 0
139 Spirit 05/14/2010 10.0 2 1
140 The Haunted 05/13/2010 10.0 1 0
141 Live Music 05/13/2010 10.0 1 0
142 Wren 03/13/2010 10.0 1 0
143 Spring Weather 03/12/2010 -- 0 0
144 Breathing 02/09/2010 10.0 3 1
145 Unfamiliar Fantasy 01/22/2010 10.0 1 0
146 Climate Change 12/26/2009 10.0 1 0
147 Missing Person 12/25/2009 -- 0 0
148 Languor 12/24/2009 10.0 1 0
149 Side Affects 12/23/2009 10.0 2 0
150 Unspeakable 12/22/2009 10.0 1 0
151 Summer 12/14/2009 10.0 1 0
152 High 12/12/2009 -- 0 0
153 Speechless 12/05/2009 10.0 2 1
154 Insight 11/14/2009 10.0 3 0
155 The Haunted Sea (Kids Stuff) 11/05/2009 10.0 2 0
156 Flight 10/15/2009 10.0 3 0
157 Ripple 10/09/2009 10.0 1 0
158 Perfect Silence 10/07/2009 8.9 7 1
159 Starters 10/02/2009 10.0 1 0
160 Pastel 09/24/2009 10.0 3 0
161 Sleep 09/18/2009 10.0 4 0
162 Spirit Wings 09/07/2009 10.0 1 0
163 Annoyance 09/05/2009 10.0 3 0
164 Lyric 09/02/2009 10.0 3 0
165 Weeping Willow 08/29/2009 9.5 2 3
166 Ritual 08/12/2009 10.0 1 0
167 Enrichment 08/10/2009 10.0 1 0
168 Recruit 07/30/2009 10.0 1 0
169 Bebe 07/29/2009 10.0 3 1
170 Music 07/28/2009 10.0 2 0
171 Saturday Night And Sunday Morning 07/22/2009 -- 0 1
172 The Red Indian 07/10/2009 10.0 1 0
173 Be Kind Be Sweet 07/08/2009 9.5 2 1
174 Late Afternoon 07/07/2009 10.0 1 0
175 Left Undead 07/06/2009 -- 0 0
176 Cloud 07/02/2009 10.0 3 2
177 Foxglove 06/28/2009 10.0 1 0
178 The Chain 06/17/2009 -- 0 0
179 Song Of A Dying Infant 06/03/2009 10.0 1 0
180 Confrontation (Darfur) 05/29/2009 10.0 5 0
181 Late Summer 05/18/2009 -- 0 1
182 A Question Of God 05/17/2009 9.6 11 1
183 Death Of A Woman 05/12/2009 7.8 4 0
184 Angels 05/09/2009 10.0 6 1
185 A Dark Fire 05/08/2009 10.0 7 1
186 Fight 05/07/2009 10.0 2 0
187 We Are 05/06/2009 10.0 4 0
188 Shadow Street 05/05/2009 7.3 3 0
189 Rendezvous 05/04/2009 9.5 2 0
190 Lifting 05/03/2009 10.0 1 0
191 A Humorous Death 05/02/2009 10.0 11 3
192 Thought 05/01/2009 9.5 4 0
193 Leaving 04/30/2009 -- 0 0
194 The Queue 04/29/2009 10.0 1 0
195 Granpa 04/28/2009 10.0 1 0
196 Two Confused 04/27/2009 10.0 1 1
197 Breakfast 04/26/2009 9.7 7 1
198 Happiness Is Sacred 04/25/2009 10.0 1 0
199 Crucible 04/24/2009 9.7 3 0
200 Valentine 04/23/2009 10.0 2 1
201 Hettie 04/06/2009 10.0 2 0
202 Six A.M. 04/04/2009 -- 0 0
203 Diary 04/01/2009 9.3 3 2
204 Possession 03/31/2009 10.0 1 1
205 Pretence 03/30/2009 10.0 1 1
206 Sundial 03/29/2009 7.5 4 0
207 Sleep My Love 03/28/2009 10.0 2 2
208 Reynard 03/27/2009 -- 0 0
209 Lucifer 03/26/2009 -- 0 0
210 Picture 03/25/2009 10.0 1 2
211 Dream On 03/24/2009 10.0 1 2
212 Something Plus 03/23/2009 -- 0 1
213 Love 03/22/2009 10.0 1 0
214 Curse 03/21/2009 -- 0 0
215 Solitude 03/20/2009 10.0 1 1
216 Anger 03/19/2009 10.0 2 2
217 Moon Song 03/18/2009 10.0 2 2
218 Winter 03/15/2009 9.8 5 1
219 Summer Shade 03/15/2009 9.0 2 1
220 Skylark 03/15/2009 10.0 1 0
221 Simplicity 03/14/2009 10.0 1 0
222 Snowdrops 03/14/2009 10.0 1 2
223 Upside Down 03/14/2009 10.0 2 0
224 The Native 03/14/2009 10.0 1 0
225 Search 03/14/2009 10.0 2 0
226 Surprise Suprise 03/14/2009 10.0 1 0
227 Changeover 03/14/2009 10.0 3 1
228 He Is 03/14/2009 10.0 3 0
229 Guide 03/14/2009 10.0 2 1
230 Vow 03/14/2009 10.0 3 0
231 Cats 03/14/2009 9.5 2 1
232 Love After Death 03/14/2009 10.0 1 1
233 The Juveniles 03/14/2009 10.0 2 0
234 Serenade 03/14/2009 10.0 1 0
235 Poppies 03/14/2009 10.0 2 0
236 May 03/14/2009 10.0 1 0
237 Village Tree 03/14/2009 9.5 2 0
238 Sunrise 03/14/2009 10.0 2 1
239 Sparrows 03/14/2009 10.0 3 0
240 Figment 03/14/2009 10.0 2 1
241 A Slow Smoke 03/14/2009 9.8 4 1
242 Time Past 03/14/2009 10.0 2 2
243 Good Night 03/14/2009 10.0 2 1
244 The Satyr 03/14/2009 10.0 1 0
245 Somewhere 03/14/2009 10.0 1 1
246 Formation 03/14/2009 -- 0 1
247 Wildflowers Live On 03/14/2009 10.0 4 2
248 Apple Tree 03/14/2009 10.0 9 2
249 Purer Than White 03/14/2009 10.0 2 0
250 Goodnight Baby Love 03/14/2009 10.0 1 1
251 Storm 03/14/2009 10.0 1 2
252 Headstones 03/14/2009 10.0 1 0
253 Underfoot 03/14/2009 10.0 1 0
254 Fantasy 03/14/2009 10.0 3 1
255 Smile 03/14/2009 10.0 2 2
256 Judas 03/14/2009 10.0 1 0
257 Domestic 03/14/2009 10.0 2 0
258 Ghost 03/14/2009 10.0 2 2
259 Rowley 03/14/2009 -- 0 0
260 Starless 03/14/2009 10.0 2 2
261 Reflection 03/14/2009 -- 0 2
262 Pretty 03/14/2009 9.0 2 1
[Report Error]